Snowfall_Accumulation
0.3 0.4 0.4 0.4 0.3 0.2 0.1 0.2 0.0 0.0 0.0 0.0 0.0 0.0 0.0 0.0 0.0 0.0 0.0 0.0 0.0 0.0
0.5 0.9 0.5 0.3 0.2 0.3 0.1 0.0 0.0 0.0 0.0 0.0 0.0 0.0 0.0 0.0 0.0 0.0 0.0 0.0 0.0 0.0
1.3 1.3 1.4 0.4 0.3 0.3 0.2 0.0 0.0 0.0 0.0 0.0 0.0 0.0 0.0 0.0 0.0 0.0 0.0 0.0 0.0 0.0
2.7 3.2 1.6 6.3 0.7 0.4 0.0 0.1 0.1 0.0 0.0 0.0 0.0 0.0 0.0 0.0 0.0 0.0 0.0 0.0 0.0 0.0
5.0 3.7 4.1 2.2 5.0 0.8 0.5 0.0 0.2 0.1 0.0 0.0 0.0 0.0 0.0 0.0 0.0 0.0 0.0 0.0 0.0 0.0
6.0 4.9 4.5 4.2 2.5 6.2 5.5 0.8 1.4 0.1 0.1 0.1 0.0 0.0 0.0 0.0 0.0 0.0 0.0 0.0 0.0 0.0
5.7 6.1 4.6 4.3 4.0 4.7 7.6 2.5 2.1 0.4 0.2 0.1 0.0 0.0 0.0 0.0 0.0 0.0 0.0 0.0 0.0 0.0
0.8 4.0 4.9 3.8 4.0 3.7 3.7 7.8 5.3 3.7 2.4 0.2 0.3 0.3 0.3 0.5 0.7 0.0 0.0 1.8 1.1 2.6
0.0 0.4 2.1 3.3 3.8 3.5 3.5 3.4 7.1 5.5 5.3 4.9 1.8 0.7 1.3 2.0 3.4 4.3 4.9 3.7 1.9 2.3
0.0 0.1 0.1 0.8 2.1 3.7 4.4 3.8 3.5 6.0 5.6 5.6 2.0 1.0 1.6 4.4 3.5 6.9 5.3 4.0 3.0 1.6
0.3 0.2 0.0 0.2 0.7 2.4 4.4 6.7 4.1 3.9 5.3 11.3 6.5 3.0 3.9 6.4 5.1 5.1 3.0 2.6 0.4 1.0
1.0 1.7 1.9 2.8 3.5 7.4 3.1 5.9 7.2 6.7 6.9 10.2 9.2 5.0 3.1 3.3 3.3 2.2 1.3 0.7 0.1 0.2
0.8 2.2 3.4 2.6 4.2 6.0 5.4 7.6 7.6 8.5 6.4 7.4 7.0 5.2 2.8 3.9 5.2 3.5 1.5 0.5 0.2 0.1
1.2 2.9 3.2 3.6 5.2 4.6 3.4 5.5 7.5 6.6 5.9 6.1 6.0 5.7 4.3 4.6 6.2 5.6 4.0 2.2 1.3 0.5